This is the latest recevied weather packets stored in our database for station/object K1BES. If no packets are shown the sender has not sent any weather packets the latest 10 day(s).
| Time | Temp. | Humidity | Pressure | Rain* | Wind** | Luminosity | Snow |
|---|---|---|---|---|---|---|---|
| 1787775473 | 32.78° C | 69% | 1017.4 hPa | 0 mm | - | 232 W/m² | - |
| 1787775171 | 32.78° C | 69% | 1017.1 hPa | 0 mm | - | 223 W/m² | - |
| 1787774872 | 33.33° C | 68% | 1017.2 hPa | 0 mm | - | 402 W/m² | - |
| 1787774571 | 33.33° C | 67% | 1017.2 hPa | 0 mm | - | 498 W/m² | - |
| 1787774271 | 33.89° C | 67% | 1017.2 hPa | 0 mm | - | 521 W/m² | - |
| 1787773970 | 33.89° C | 68% | 1017.4 hPa | 0 mm | - | 632 W/m² | - |
| 1787773669 | 33.89° C | 68% | 1017.3 hPa | 0 mm | - | 618 W/m² | - |
| 1787773365 | 34.44° C | 67% | 1017.5 hPa | 0 mm | - | 708 W/m² | - |
| 1787773060 | 34.44° C | 62% | 1017.3 hPa | 0 mm | - | 775 W/m² | - |
| 1787772756 | 35° C | 61% | 1017.3 hPa | 0 mm | - | 694 W/m² | - |
| 1787772454 | 35° C | 62% | 1017.6 hPa | 0 mm | - | 933 W/m² | - |
| 1787772153 | 34.44° C | 63% | 1017.7 hPa | 0 mm | - | 925 W/m² | - |
| 1787771853 | 35° C | 60% | 1017.8 hPa | 0 mm | - | 919 W/m² | - |
| 1787771552 | 35° C | 62% | 1017.9 hPa | 0 mm | - | 930 W/m² | - |
| 1787771247 | 35° C | 61% | 1018 hPa | 0 mm | - | 933 W/m² | - |
| 1787770942 | 35° C | 61% | 1017.7 hPa | 0 mm | - | 943 W/m² | - |
| 1787770641 | 35° C | 60% | 1018 hPa | 0 mm | - | 947 W/m² | - |
| 1787770335 | 34.44° C | 62% | 1018.1 hPa | 0 mm | - | 952 W/m² | - |
| 1787770035 | 34.44° C | 61% | 1018.2 hPa | 0 mm | - | 960 W/m² | - |
| 1787769729 | 34.44° C | 59% | 1018.2 hPa | 0 mm | - | 968 W/m² | - |
| 1787769428 | 34.44° C | 61% | 1018.3 hPa | 0 mm | - | 976 W/m² | - |
| 1787769123 | 35° C | 60% | 1018.3 hPa | 0 mm | - | 979 W/m² | - |
| 1787768817 | 35° C | 59% | 1018.5 hPa | 0 mm | - | 986 W/m² | - |
| 1787768514 | 35° C | 60% | 1018.7 hPa | 0 mm | - | 987 W/m² | - |
| 1787768209 | 35° C | 58% | 1018.6 hPa | 0 mm | - | 993 W/m² | - |
* Rain latest hour (hover to see other rain measurements)
** Current wind speed in m/s (hover to see current wind gust speed)